{"data":{"norad_id":65203,"epoch":"2026-09-20T20:47:21.393312Z","epoch_age_seconds":89265,"freshness":"FRESH","line1":"1 65203U 25176F   26263.86621983  .00012476  00000+0  37987-3 0  9995","line2":"2 65203  53.1608 321.8447 0001645  77.0873 283.0314 15.34391116 63068","mean_motion":15.34391116,"eccentricity":0.0001645,"inclination_deg":53.1608,"raan_deg":321.8447,"arg_perigee_deg":77.0873,"mean_anomaly_deg":283.0314,"bstar":0.00037987,"rev_number":6306,"period_min":93.848301452235,"perigee_km":461.60432289155,"apogee_km":463.8549680179,"semimajor_km":6840.8666454547,"source":"CELESTRAK","updated_at":"2026-09-21T09:00:35.533963Z"}}